Weather in Acireale

Italy     37°36′45″N   15°09′56″E
temp.,
°C
wind,
m/s
gust,
m/s
humid.,
%
clouds,
%
prec.,
mm/h
press.,
hPa
HPBL,
m
18 january, mon
mon1801:00+14w9116312 0.0 1011872
04:00+13wnw99600 0.1 1013687
07:00+12nne566627 0.6 1015795
10:00+10ene11107731 0.2 1019866
13:00+11e867157 0.2 1020868
16:00+11ene346781 0.4 1022813
19:00+11nw225972 0.9 1024761
22:00+10nw126264 0.3 1026493
19 january, tue
tue1901:00+9wnw235737 0.3 1027365
04:00+9w44600 0.0 1027223
07:00+9w44570 0.0 1028226
10:00+10wsw44570 0.0 1030213
13:00+11sw44500 0.0 1028531
16:00+12s55560 0.0 1028502
19:00+12sw44540 0.0 1029595
22:00+11wsw67610 0.0 1030344
20 january, wed
wed2001:00+11wsw710670 0.0 1029618
04:00+11wsw710700 0.0 1028730
07:00+11wsw586710 0.0 1028692
10:00+12wsw786616 0.0 1028809
13:00+14wsw9116551 0.0 10261111
16:00+14wsw81066100 0.0 10251283
19:00+13wsw91272100 0.0 1025956
22:00+13wsw9117613 0.0 1024795
21 january, thu
thu2101:00+13wsw9127834 0.0 1024792
04:00+13wsw9137669 0.0 1022819
07:00+13wsw7117442 0.0 1022758
10:00+14sw7117392 0.0 1022953
13:00+16sw7107096 0.0 1020697
16:00+16wsw71068100 0.0 1019688
19:00+15sw7968100 0.0 1020675
22:00+13wsw8107233 0.0 1020540
22 january, fri
fri2201:00+13w686417 0.0 1020324
04:00+13wsw67650 0.0 1019217
07:00+13wsw78630 0.0 1019233
10:00+14wsw896317 0.0 1018325
13:00+16wsw686530 0.0 1016366
16:00+16sw8106882 0.0 1014475
19:00+14wsw9127491 0.0 1014559
22:00+14wsw10137278 0.0 1014543